Probability
0 0 0 0 0 0 0 0 0 0 0 0 0 0 0 0 0 0 0 0 0 0 0 0 0 0 0 0 0 0 0 0 0 0 0 0 0 0 0 0 0 0 0
0 0 0 0 0 0 0 0 0 0 0 0 0 0 0 0 0 0 0 0 0 0 0 0 0 0 0 0 0 0 0 0 0 0 0 0 0 0 0 0 0 0 0
0 0 0 0 0 0 0 0 0 0 0 0 0 0 0 0 0 0 0 0 0 0 0 0 0 0 0 0 0 0 0 0 0 0 0 0 0 0 0 0 0 0 0
0 0 0 0 0 0 0 0 0 0 0 0 0 0 0 0 0 0 0 0 0 0 0 0 0 0 0 0 0 0 0 0 0 0 0 0 0 0 0 0 0 0 0
0 0 0 0 0 0 0 0 0 0 0 0 0 0 0 0 0 0 0 0 0 0 0 0 0 0 0 0 0 0 0 0 0 0 0 0 0 0 0 0 0 0 0
0 0 0 0 0 0 0 0 0 0 0 0 0 0 0 0 0 0 0 0 0 0 0 0 0 0 0 0 0 0 0 0 0 0 0 0 0 0 0 0 0 0 0
0 0 0 0 0 0 0 0 0 0 0 0 0 0 0 0 0 0 0 0 0 0 0 0 0 0 0 0 0 0 0 0 0 0 0 0 0 0 0 0 0 0 0
0 0 0 0 0 0 0 0 0 0 0 0 0 0 0 0 0 0 0 0 0 0 0 0 0 0 0 0 0 0 0 0 0 0 0 0 0 0 0 0 0 0 0
0 0 0 0 0 0 0 0 0 0 0 0 0 0 0 0 0 0 0 0 0 0 0 0 0 0 0 0 0 0 0 0 0 0 0 0 0 0 0 0 0 0 0
0 0 0 0 0 0 0 0 0 0 0 0 0 0 0 0 0 0 0 0 0 0 0 0 0 0 0 0 0 0 0 0 0 0 0 0 0 0 0 0 0 0 0
0 0 0 0 0 0 0 0 0 0 0 0 0 0 0 0 0 0 0 0 0 0 0 0 0 0 0 0 0 0 0 0 0 0 0 0 0 0 0 0 0 0 0
0 0 0 0 0 0 0 0 0 0 0 0 0 0 0 0 0 0 0 0 0 0 0 0 0 0 0 0 0 0 0 0 0 0 0 0 0 0 0 0 0 0 0
0 0 0 0 0 0 0 0 0 0 0 0 0 0 0 0 0 0 0 0 0 0 0 0 0 0 0 0 0 0 0 0 0 0 0 0 0 0 0 0 0 0 0
0 0 0 0 0 0 0 0 0 0 0 0 0 0 0 0 0 0 0 0 0 0 0 0 0 0 0 0 0 0 0 0 0 0 0 0 0 0 0 0 0 0 0
0 0 0 0 0 0 0 0 0 0 0 0 0 0 0 0 0 0 0 0 0 0 0 0 0 0 0 0 0 0 0 0 0 0 0 0 0 0 0 0 0 0 0
0 0 0 0 0 0 0 0 0 0 0 0 0 0 0 0 0 0 0 0 0 0 0 0 0 0 0 0 0 0 0 0 0 0 0 0 0 0 0 0 0 0 0
0 0 0 0 0 0 0 0 0 0 0 0 0 0 0 0 0 0 0 0 0 0 0 0 0 0 0 0 0 0 0 0 0 0 0 0 0 0 0 0 0 0 0
0 0 0 0 0 0 0 0 0 0 0 0 0 0 0 0 0 0 0 0 0 0 0 0 0 0 0 0 0 0 0 0 0 0 0 0 0 0 0 0 0 0 0
0 0 0 0 0 0 0 0 0 0 0 0 0 0 0 0 0 0 0 0 0 0 0 0 0 0 0 0 0 0 0 0 0 0 0 0 0 0 0 0 0 0 0
0 0 0 0 0 0 0 0 0 0 0 0 0 0 0 0 0 0 0 0 0 0 0 0 0 0 0 0 0 0 0 0 0 0 0 0 0 0 0 0 0 0 0
0 0 0 0 0 0 0 0 0 0 0 0 0 0 0 0 0 0 0 0 0 0 0 0 0 0 0 0 0 0 0 0 0 0 0 0 0 0 0 0 0 0 0
0 0 0 0 0 0 0 0 0 0 0 0 0 0 0 0 0 0 0 0 0 0 0 0 0 0 0 0 0 0 0 0 0 0 0 0 0 0 0 0 0 0 0
0 0 0 0 0 0 0 0 0 0 0 0 0 0 0 0 0 0 0 0 0 0 0 0 0 0 0 0 0 0 0 0 0 0 0 0 0 0 0 0 0 0 0
0 0 0 0 0 0 0 0 0 0 0 0 0 0 0 0 0 0 0 0 0 0 0 0 0 0 0 0 0 0 0 0 0 0 0 0 0 0 0 0 0 0 0
0 0 0 0 0 0 0 0 0 0 0 0 0 0 0 0 0 0 0 0 0 0 0 0 0 0 0 0 0 0 0 0 0 0 0 0 0 0 0 0 0 0 0
0 0 0 0 0 0 0 0 0 0 0 0 0 0 0 0 0 0 0 0 0 0 0 0 0 0 0 0 0 0 0 0 0 0 0 0 0 0 0 0 0 0 0
Wind_Speed
5 5 6 6 6 6 6 8 8 8 8 9 10 10 11 12 12 12 14 13 16 16 14 15 17 13 11 10 10 10 12 11 17 8 6 7 8 8 8 6 6 8 9
5 5 6 6 6 7 8 8 8 8 8 8 9 9 11 11 11 12 14 14 15 16 16 16 17 13 15 12 11 13 13 13 14 14 6 7 10 9 8 8 9 9 8
6 6 6 7 7 8 9 9 8 8 8 8 8 10 11 11 11 12 13 14 14 15 15 16 16 14 16 13 14 13 12 12 12 12 9 7 8 7 8 8 10 8 10
6 6 7 8 8 8 9 8 8 8 9 9 10 10 11 11 11 12 12 13 13 14 14 15 15 15 16 15 14 14 12 12 10 10 10 8 8 7 6 8 9 8 9
7 8 8 9 8 8 9 9 9 9 10 10 10 11 11 9 9 10 11 12 13 13 13 13 14 18 22 17 12 10 10 10 10 10 11 10 9 8 8 7 10 7 7
7 9 9 9 9 9 9 9 9 10 10 10 10 11 11 10 17 23 18 11 11 12 13 12 13 18 23 28 29 25 20 15 13 12 11 12 11 10 9 9 8 7 7
8 9 10 10 10 10 10 10 10 10 10 10 10 11 12 14 22 24 24 15 10 10 12 11 10 11 18 12 19 27 25 29 26 16 15 14 12 11 10 11 10 10 11
9 10 10 10 10 11 10 11 11 10 9 10 11 11 12 14 22 24 24 14 9 9 10 11 11 11 12 12 10 12 12 13 16 16 14 13 12 9 10 12 11 11 10
10 10 10 10 11 12 12 12 11 10 10 10 10 11 12 14 21 23 22 8 7 8 8 9 10 10 17 23 14 11 12 11 20 25 22 19 22 24 18 10 10 10 10
11 11 10 10 11 13 13 12 11 10 11 10 11 11 12 12 18 22 21 6 7 7 6 8 15 15 18 21 13 11 12 10 9 10 14 17 14 16 22 13 8 8 7
11 11 11 11 11 13 12 11 11 11 11 11 12 11 10 12 16 20 20 7 6 7 6 5 7 17 20 21 19 12 15 11 8 9 9 8 8 7 8 7 7 7 8
12 12 12 11 10 10 12 12 11 11 11 11 11 11 8 9 12 15 19 17 14 7 6 5 8 17 19 21 16 16 21 18 8 8 9 9 8 8 7 7 8 8 9
13 12 12 12 10 10 11 12 11 9 9 10 9 10 9 7 9 17 19 19 18 9 6 11 13 17 17 14 18 20 17 10 8 9 9 8 7 6 5 4 5 6 7
14 13 11 12 11 10 8 9 10 9 10 10 10 10 9 8 7 6 7 8 11 9 6 9 14 15 12 12 12 10 7 6 7 7 6 5 4 4 5 4 4 4 5
13 12 11 10 11 11 9 9 11 10 12 14 10 10 11 10 11 17 12 6 5 7 6 4 3 4 5 5 5 5 4 4 5 4 5 4 4 5 4 4 4 4 5
13 12 9 9 9 9 10 11 16 18 23 24 22 19 13 17 22 22 21 19 18 15 9 5 5 5 5 5 6 5 5 5 4 4 4 4 4 4 4 3 4 4 7
13 13 10 9 9 10 11 12 13 14 18 21 22 22 20 22 23 21 20 17 16 14 7 4 5 5 5 5 5 5 5 5 4 4 4 4 4 4 4 4 4 5 7
12 14 14 10 10 10 11 11 11 12 13 11 13 19 21 21 21 20 18 13 6 5 4 4 4 5 5 5 5 5 4 4 4 4 4 4 4 4 4 5 5 6 8
11 9 9 9 10 10 10 11 11 12 12 12 10 12 16 17 17 16 14 5 5 5 4 4 4 4 4 5 5 5 5 4 4 4 4 4 4 4 5 5 6 11 11
9 18 18 12 10 10 10 11 11 11 11 10 10 10 9 9 6 6 5 4 4 4 4 4 4 4 4 4 4 4 4 4 4 4 4 4 4 4 5 6 7 7 8
9 12 19 14 10 11 11 11 11 10 11 10 10 11 17 10 7 6 5 4 4 4 4 4 4 4 4 4 4 4 5 4 4 4 4 4 4 4 5 6 7 8 8
9 9 10 11 11 11 11 10 10 11 11 12 10 10 16 9 6 6 5 4 4 3 3 3 3 4 4 4 4 4 4 4 4 4 4 4 4 4 5 6 7 7 8
9 11 11 11 10 14 13 10 10 11 11 10 10 9 8 6 6 5 5 4 3 2 2 2 3 3 3 3 4 4 4 4 4 4 4 4 4 5 5 7 8 9 9
9 11 12 12 11 10 11 11 10 10 10 10 9 8 7 6 6 5 4 3 2 1 2 2 3 4 5 3 3 3 3 3 3 4 5 5 5 5 6 6 8 9 9
9 10 11 11 11 11 11 11 11 10 9 9 9 8 6 6 5 4 3 2 1 1 2 2 2 3 4 4 3 3 5 7 6 4 4 4 5 6 6 7 8 9 9
9 10 11 10 10 10 10 11 10 10 9 8 7 6 6 5 4 3 2 1 0 1 1 1 2 2 3 3 3 5 6 7 7 7 3 3 4 5 6 7 9 9 9
Wind_Direction
294 286 284 282 281 279 272 269 268 270 269 266 263 259 255 251 245 240 239 236 235 236 230 230 232 226 226 222 220 219 223 225 249 243 202 206 206 220 236 229 224 235 250
293 293 289 287 290 287 279 276 274 271 270 267 266 264 262 258 250 245 245 241 237 237 234 231 233 226 226 224 222 223 225 223 236 248 215 208 217 221 227 233 240 242 237
299 300 299 296 293 287 283 281 279 275 274 273 269 267 266 262 256 251 248 246 241 239 235 232 232 226 229 225 223 224 224 225 227 238 233 215 223 224 228 238 242 241 244
305 303 299 294 290 286 284 283 280 277 276 274 271 269 266 263 259 256 252 250 247 244 238 234 231 226 228 225 225 224 221 222 221 229 234 227 228 220 220 236 246 237 242
307 305 298 295 294 292 289 286 282 279 276 274 275 274 270 267 262 258 252 250 249 248 243 238 234 233 232 230 227 220 215 218 219 225 233 232 228 220 222 224 240 245 245
306 301 298 299 299 296 292 288 285 281 278 276 273 273 273 271 279 282 279 253 243 243 245 241 238 246 247 246 242 233 217 214 218 221 227 228 226 223 224 227 233 240 253
302 299 299 299 298 294 292 290 286 283 279 277 275 273 272 274 284 288 286 280 252 241 239 238 238 236 241 237 247 250 242 230 220 214 225 225 224 220 220 227 229 232 242
301 298 298 298 295 293 291 289 287 282 280 280 278 275 274 277 288 293 292 285 265 247 238 233 232 231 229 228 226 232 236 241 237 228 221 222 224 220 215 224 232 242 249
300 297 296 294 295 295 293 290 287 285 284 280 278 278 277 281 290 296 295 276 264 256 243 233 233 230 237 241 233 226 231 234 243 241 239 232 228 229 222 222 228 236 250
299 296 294 292 293 294 293 292 290 286 285 285 282 277 276 278 287 296 296 276 267 264 250 238 247 246 241 246 239 225 227 225 219 234 244 251 248 244 242 231 223 238 255
296 295 293 291 290 292 292 291 292 291 289 288 286 283 277 279 290 295 297 287 261 261 256 241 237 255 255 248 239 226 231 222 207 216 224 231 235 237 240 233 219 225 245
297 295 294 292 291 296 294 295 292 291 292 292 291 290 282 279 287 291 294 293 289 267 257 245 240 252 254 253 247 235 233 231 214 211 217 222 224 226 224 220 220 223 230
301 297 295 294 290 289 291 295 296 292 291 293 292 292 292 283 281 292 296 296 294 286 261 263 260 258 257 254 252 245 237 226 212 209 211 218 217 214 206 209 222 230 241
301 300 298 298 298 293 288 288 291 292 291 291 292 292 291 288 281 275 272 279 283 284 282 280 280 274 263 246 244 250 238 221 210 209 205 204 193 194 204 205 221 230 253
299 298 298 295 296 298 293 288 291 282 284 292 291 290 294 295 290 293 292 271 248 245 252 238 241 249 246 234 223 222 216 209 209 189 192 195 200 208 215 204 215 228 249
303 303 300 298 297 297 299 299 294 293 296 296 295 294 290 289 296 300 301 300 296 284 271 228 222 229 233 231 218 210 204 201 197 192 193 198 206 213 224 220 220 234 259
297 301 300 297 298 300 300 301 303 302 298 297 296 297 297 298 300 301 301 300 297 294 277 241 219 218 222 215 206 197 195 192 185 190 197 200 206 215 225 235 240 251 262
297 300 302 297 296 296 296 296 297 300 304 301 297 298 301 302 304 304 303 302 292 285 259 245 222 211 208 205 199 192 190 185 186 196 202 205 207 215 230 242 249 255 267
299 297 295 293 294 294 295 295 295 295 295 297 299 299 301 303 304 302 304 285 268 264 250 236 218 206 202 200 195 190 189 191 191 193 204 209 208 214 235 246 254 268 275
294 301 308 304 299 297 296 296 296 296 297 296 297 298 301 299 293 293 280 258 255 257 248 231 213 204 199 194 189 185 187 193 195 201 209 212 212 218 238 250 257 266 270
294 298 304 305 297 296 296 296 295 296 295 294 294 295 302 302 295 289 280 261 248 247 240 225 206 196 192 184 182 186 192 200 201 205 211 215 217 231 242 252 261 267 273
293 295 295 296 297 298 299 296 295 294 294 294 296 298 304 301 291 288 280 270 253 239 229 212 197 192 191 188 186 189 197 205 207 207 214 221 228 243 252 259 266 271 274
294 297 300 300 299 301 303 296 294 294 295 296 300 302 301 296 289 284 279 273 255 235 219 200 189 188 187 187 186 187 197 209 208 203 212 227 238 249 256 265 271 275 278
299 302 304 304 302 300 299 298 297 296 297 300 301 298 296 294 293 290 285 276 247 221 198 185 186 191 187 185 186 191 202 210 201 206 215 230 246 256 263 269 273 277 280
304 304 304 303 301 301 301 300 299 300 301 302 301 302 302 301 296 290 288 277 229 194 180 171 173 180 187 191 191 205 227 235 238 232 221 232 250 259 268 274 277 281 281
304 303 302 300 299 300 301 302 303 304 305 307 306 304 302 300 297 293 289 273 204 171 162 154 163 169 178 191 209 229 245 253 257 258 247 244 257 269 275 277 279 283 285